Вернуться в каталог

OPTUS 10

АктивенСвязьGEO
NORAD 40146·PAYLOAD·🇦🇺 Australia

Запущен Sep 11, 2014 с Guiana Space Centre

Loading…

TLE

СвежийSource: Space-Track

Эпоха: Sep 14, 2026, 15:10 UTC

1 40146U 14054A   26257.63218197 -.00000155  00000-0  00000-0 0  9990
2 40146   0.1128  15.0221 0002028 155.1958 206.9931  1.00271327 43927

Отслеживайте OPTUS 10 в реальном времени с AllMySat

Download on the App Store